Find Flock 4be-35

NORAD ID: 60558 Int'l Des: 2024-149 Owner: PLAN Country: US Constellation: planet operational
LEOCIRCULARRETROGRADESSO

实时位置

正在加载3D地球...

关于 Flock 4be-35

正在加载描述...

即将过境

Passes for default location (London). Set your location on the main map for personalized predictions.

高度历史

Loading altitude history...

两行轨道根数

1 60558U 24149CU 26107.17312203 .00070932 00000-0 11650-2 0 9995
2 60558 97.3729 191.1917 0005437 172.1984 187.9354 15.52153589 92959
Epoch: Apr 17, 2026 • Age: 11 hours

当前状态

高度 416.5 km
速度 7.66 km/s
星下点 4.17°N, 120.31°E
发射日期 Aug 16, 2024
运行时间 1.6 years
类型 earth observation

技术详情

分类 Payload
质量 5.70 kg
干质量 5.70 kg
总质量 5.70 kg
长度 0.30 m
直径 0.10 m
跨度 0.30 m
形状 Box+2 pan
制造商 PLAN
平台类型 Cubesat 3U
阶段状态 In Orbit
所有者/国家 PLAN/US

Most Searched